Weather reports worldwide

Advertisment
Eindhoven, Netherlands (6370): temperature & dewpoint: 22.01.2020 09:00:00 - 28.01.2020 09:00:00 (CET)Eindhoven, Netherlands (6370): temperature 5cm: 22.01.2020 09:00:00 - 28.01.2020 09:00:00 (CET)Eindhoven, Netherlands (6370): wind speed & gusts: 22.01.2020 09:00:00 - 28.01.2020 09:00:00 (CET)Eindhoven, Netherlands (6370): wind direction: 22.01.2020 09:00:00 - 28.01.2020 09:00:00 (CET)Eindhoven, Netherlands (6370): reduced air pressure: 22.01.2020 09:00:00 - 28.01.2020 09:00:00 (CET)Eindhoven, Netherlands (6370): visibility: 22.01.2020 09:00:00 - 28.01.2020 09:00:00 (CET)Eindhoven, Netherlands (6370): precipitation: 22.01.2020 09:00:00 - 28.01.2020 09:00:00 (CET)
Date & Time tt [°C] td [°C] tt 5cm [°C] ff [km/h] ff [kn] fx [km/h] fx [kn] dd ppp [hPa] vv [km] rr [mm]
28.01.2020 09:00:00 5,2 2,9 4,9 29 16 54 29 SW 990,3 10 0,0
28.01.2020 08:00:00 5,4 3,1 5,1 39 21 58 31 SW 989,7 10 0,2
28.01.2020 07:00:00 5,9 3,5 5,4 22 12 47 25 SSW 989,4 10 0,1
28.01.2020 06:00:00 6,1 4,6 5,7 15 8 25 14 S 990,5 10 0,0
28.01.2020 05:00:00 5,6 4,7 5,0 13 7 36 19 SSW 991,8 10 0,1
28.01.2020 04:00:00 5,3 4,2 4,6 15 8 25 14 SSW 993,0 10 0,0
28.01.2020 03:00:00 5,9 4,7 5,6 22 12 47 25 SW 994,0 10 0,6
28.01.2020 02:00:00 6,8 5,4 6,5 28 15 40 21 SW 993,6 10 0,9
28.01.2020 01:00:00 7,3 5,3 6,7 28 15 47 25 SW 994,1 10 0,0
28.01.2020 00:00:00 8,0 6,1 7,6 29 16 58 31 SSW 994,1 10 0,0
27.01.2020 23:00:00 7,8 6,3 7,3 26 14 43 23 S 994,4 10 0,1
27.01.2020 22:00:00 7,5 6,0 7,1 21 11 36 19 S 995,5 10 1,1
27.01.2020 21:00:00 8,0 6,0 7,4 21 11 29 16 S 997,1 10 0,0
27.01.2020 20:00:00 7,9 6,1 7,2 16 9 29 16 SSE 998,9 10 0,0
27.01.2020 19:00:00 7,9 6,1 7,3 16 9 25 14 S 1000,4 10 0,0
27.01.2020 18:00:00 8,5 5,9 8,0 16 9 25 14 S 1001,5 10 0,0
27.01.2020 17:00:00 8,9 6,5 8,6 13 7 22 12 S 1002,4 10 0,0
27.01.2020 16:00:00 9,4 7,2 9,2 11 6 22 12 SSW 1003,3 10 0,0
27.01.2020 15:00:00 9,3 7,4 9,2 15 8 22 12 S 1003,8 10 0,0
27.01.2020 14:00:00 9,3 7,4 9,2 15 8 25 14 SSW 1004,3 10 0,0
27.01.2020 13:00:00 9,3 7,7 9,4 16 9 32 18 SSW 1005,5 10 0,0
27.01.2020 12:00:00 8,9 8,0 9,1 16 9 29 16 SSW 1006,3 10 0,0
27.01.2020 11:00:00 8,5 7,7 8,6 15 8 25 14 S 1006,9 10 0,0
27.01.2020 10:00:00 8,4 7,2 8,3 16 9 25 14 S 1007,3 10 0,0
27.01.2020 09:00:00 8,2 7,1 7,9 13 7 36 19 S 1007,7 10 0,0
27.01.2020 08:00:00 8,4 7,0 7,9 21 11 36 19 SSW 1007,8 10 0,0
27.01.2020 07:00:00 8,0 6,8 7,6 18 10 32 18 S 1007,8 10 0,3
27.01.2020 06:00:00 7,9 6,8 7,7 22 12 40 21 SSW 1008,3 10 0,1
27.01.2020 05:00:00 7,8 7,0 7,6 21 11 36 19 SSW 1008,6 5 0,3
27.01.2020 04:00:00 7,9 6,8 7,5 22 12 36 19 S 1008,9 7 0,5
27.01.2020 03:00:00 7,7 6,3 7,3 22 12 43 23 S 1009,5 10 0,2
27.01.2020 02:00:00 7,9 5,4 7,3 21 11 36 19 SSW 1010,1 10 0,0
27.01.2020 01:00:00 7,9 4,8 7,2 21 11 32 18 S 1010,7 10 0,0
27.01.2020 00:00:00 7,6 4,8 7,0 21 11 29 16 S 1011,4 10 0,0
26.01.2020 23:00:00 7,4 4,9 6,8 21 11 29 16 S 1011,9 10 0,0
26.01.2020 22:00:00 7,4 5,2 6,9 16 9 29 16 S 1012,6 10 0,0
26.01.2020 21:00:00 7,1 5,0 6,0 15 8 32 18 S 1012,9 10 0,0
26.01.2020 20:00:00 8,5 5,3 7,5 18 10 32 18 SSW 1013,3 10 0,0
26.01.2020 19:00:00 8,2 5,3 6,7 15 8 25 14 S 1013,2 10 0,0
26.01.2020 18:00:00 7,4 4,8 5,8 11 6 18 10 S 1013,4 10 0,0
26.01.2020 17:00:00 8,8 5,2 7,6 11 6 18 10 S 1013,3 10 0,0
26.01.2020 16:00:00 10,0 5,6 9,6 15 8 25 14 S 1013,8 10 0,0
26.01.2020 15:00:00 9,9 5,5 9,7 13 7 25 14 S 1014,1 10 0,0
26.01.2020 14:00:00 9,9 5,6 10,8 13 7 22 12 S 1014,6 10 0,0
26.01.2020 13:00:00 9,2 5,8 10,1 13 7 22 12 SSW 1015,1 10 0,0
26.01.2020 12:00:00 7,5 5,2 8,1 9 5 18 10 S 1015,8 9 0,0
26.01.2020 11:00:00 5,1 4,0 5,0 9 5 14 8 SSE 1016,3 9 0,0
26.01.2020 10:00:00 3,8 3,0 3,6 11 6 14 8 SSE 1016,4 8 0,0
26.01.2020 09:00:00 2,7 2,4 2,4 8 4 18 10 SE 1016,3 6 0,0
26.01.2020 08:00:00 2,4 2,3 2,2 9 5 14 8 SE 1016,4 4,6 0,0
26.01.2020 07:00:00 1,9 1,8 1,8 9 5 18 10 SE 1016,4 2,8 0,0
26.01.2020 06:00:00 1,5 1,3 1,5 8 4 14 8 SE 1016,8 1,9 0,0
26.01.2020 05:00:00 1,2 1,0 1,2 9 5 18 10 SE 1017,0 0,8 0,0
26.01.2020 04:00:00 1,6 1,4 1,6 9 5 18 10 SE 1017,5 0,6 0,0
26.01.2020 03:00:00 2,0 1,8 2,1 9 5 18 10 ESE 1017,6 0,4 0,0
26.01.2020 02:00:00 2,5 2,3 2,5 9 5 14 8 SE 1018,4 0,5 0,0
26.01.2020 01:00:00 2,3 2,2 2,3 5 3 14 8 SE 1019,1 0,4 0,0
26.01.2020 00:00:00 2,0 1,8 2,0 8 4 14 8 ESE 1019,5 0,4 0,0
25.01.2020 23:00:00 1,7 1,6 1,8 5 3 11 6 ESE 1019,9 0,5 0,0
25.01.2020 22:00:00 1,5 1,4 1,6 8 4 14 8 ESE 1020,1 0,4 0,0
25.01.2020 21:00:00 1,5 1,3 1,6 8 4 14 8 SE 1020,5 0,6 0,0
25.01.2020 20:00:00 1,4 1,2 1,4 8 4 11 6 SE 1020,9 1,2 0,0
25.01.2020 19:00:00 1,1 0,8 1,2 5 3 14 8 ESE 1020,9 1,7 0,0
25.01.2020 18:00:00 1,3 0,5 1,3 5 3 11 6 ESE 1020,8 3,4 0,0
25.01.2020 17:00:00 1,3 0,4 1,5 5 3 11 6 ESE 1020,6 3,4 0,0
25.01.2020 16:00:00 1,6 0,7 2,0 4 2 11 6 S 1021,0 2,3 0,0
25.01.2020 15:00:00 1,5 0,6 1,9 8 4 11 6 SSW 1021,3 2,9 0,0
25.01.2020 14:00:00 1,5 0,3 1,9 9 5 18 10 S 1021,9 2,9 0,0
25.01.2020 13:00:00 1,1 0,0 1,5 9 5 14 8 S 1022,3 2,8 0,0
25.01.2020 12:00:00 0,7 -0,2 1,0 5 3 11 6 S 1023,0 2,6 0,0
25.01.2020 11:00:00 0,3 -0,6 0,6 8 4 11 6 SSE 1023,1 3,0 0,0
25.01.2020 10:00:00 -0,2 -0,8 0,0 9 5 14 8 SW 1022,8 2,5 0,0
25.01.2020 09:00:00 -0,2 -0,7 -0,1 5 3 11 6 S 1022,6 2,0 0,0
25.01.2020 08:00:00 -0,1 -0,5 0,1 8 4 14 8 S 1022,5 2,1 0,0
25.01.2020 07:00:00 0,4 -0,4 0,5 8 4 14 8 SSW 1022,3 2,7 0,0
25.01.2020 06:00:00 0,6 -0,1 0,7 8 4 11 6 S 1022,0 2,4 0,0
25.01.2020 05:00:00 0,8 0,3 0,9 9 5 11 6 S 1022,1 2,6 0,0
25.01.2020 04:00:00 0,8 0,1 0,9 5 3 11 6 S 1022,3 4,3 0,0
25.01.2020 03:00:00 0,9 0,4 1,0 5 3 11 6 S 1022,8 2,8 0,0
25.01.2020 02:00:00 1,0 0,4 1,0 8 4 14 8 SW 1022,9 4,6 0,0
25.01.2020 01:00:00 1,0 0,1 1,1 4 2 14 8 - 1023,2 3,2 0,0
25.01.2020 00:00:00 1,1 0,6 1,2 5 3 11 6 S 1023,3 3,4 0,0
24.01.2020 23:00:00 1,3 0,7 1,4 8 4 14 8 SSW 1023,4 6 0,0
24.01.2020 22:00:00 1,4 0,4 1,5 4 2 7 4 - 1023,6 5 0,0
24.01.2020 21:00:00 1,5 0,7 1,6 5 3 11 6 NE 1023,9 3,9 0,0
24.01.2020 20:00:00 1,5 0,9 1,6 5 3 11 6 - 1023,8 5 0,0
24.01.2020 19:00:00 1,6 0,9 1,7 5 3 11 6 WSW 1023,5 4,5 0,0
24.01.2020 18:00:00 1,8 1,1 1,8 5 3 14 8 W 1023,1 5 0,0
24.01.2020 17:00:00 1,8 0,9 1,8 9 5 14 8 S 1022,9 7 0,0
24.01.2020 16:00:00 1,8 0,9 2,0 5 3 11 6 S 1023,0 6 0,0
24.01.2020 15:00:00 1,7 0,9 1,9 8 4 11 6 SSW 1023,3 6 0,0
24.01.2020 14:00:00 1,5 0,6 1,9 4 2 7 4 - 1024,0 7 0,0
24.01.2020 13:00:00 1,3 0,3 1,7 4 2 14 8 - 1024,2 5 0,0
24.01.2020 12:00:00 1,2 0,6 1,5 8 4 18 10 NW 1025,0 2,5 0,0
24.01.2020 11:00:00 1,3 0,8 1,4 9 5 14 8 W 1024,8 4,1 0,0
24.01.2020 10:00:00 1,2 0,6 1,3 11 6 18 10 WSW 1024,5 3,2 0,0
24.01.2020 09:00:00 0,9 0,5 1,0 11 6 14 8 SSW 1024,4 2,2 0,0
24.01.2020 08:00:00 0,7 0,3 0,8 8 4 14 8 SW 1024,1 2,2 0,0
24.01.2020 07:00:00 0,4 0,2 0,6 9 5 14 8 S 1024,0 2,0 0,0
24.01.2020 06:00:00 0,8 0,6 1,0 5 3 11 6 SSW 1024,2 1,5 0,0
24.01.2020 05:00:00 0,8 0,7 1,0 5 3 11 6 W 1024,7 1,2 0,0
24.01.2020 04:00:00 1,1 0,9 1,3 5 3 11 6 SSW 1025,0 0,6 0,0
24.01.2020 03:00:00 1,3 1,1 1,5 4 2 11 6 - 1025,4 0,5 0,0
24.01.2020 02:00:00 1,4 1,1 1,6 4 2 11 6 - 1025,8 1,1 0,0
24.01.2020 01:00:00 1,5 1,3 1,7 8 4 18 10 SSE 1026,3 1,3 0,0
24.01.2020 00:00:00 1,8 1,2 1,8 11 6 18 10 SSE 1026,7 2,1 0,0
23.01.2020 23:00:00 2,1 1,4 2,2 9 5 14 8 ESE 1027,1 3,2 0,0
23.01.2020 22:00:00 2,2 1,4 2,3 9 5 14 8 E 1027,3 3,4 0,0
23.01.2020 21:00:00 2,8 1,8 2,8 8 4 14 8 ESE 1027,5 3,4 0,0
23.01.2020 20:00:00 2,8 1,6 2,8 9 5 14 8 ESE 1028,0 4,2 0,0
23.01.2020 19:00:00 2,9 1,6 2,9 9 5 14 8 SE 1028,3 5 0,0
23.01.2020 18:00:00 3,4 1,8 3,3 11 6 14 8 ESE 1028,6 7 0,0
23.01.2020 17:00:00 3,9 1,7 3,8 9 5 18 10 ESE 1029,0 10 0,0
23.01.2020 16:00:00 4,3 1,6 4,3 9 5 18 10 E 1029,5 10 0,0
23.01.2020 15:00:00 4,6 1,4 4,8 11 6 22 12 E 1030,2 10 0,0
23.01.2020 14:00:00 5,1 1,6 5,4 9 5 22 12 E 1030,8 10 0,0
23.01.2020 13:00:00 5,3 2,0 5,8 11 6 18 10 ENE 1031,7 10 0,0
23.01.2020 12:00:00 4,9 2,2 6,3 8 4 11 6 - 1032,7 8 0,0
23.01.2020 11:00:00 4,2 2,4 4,6 5 3 11 6 E 1033,4 7 -
23.01.2020 10:00:00 3,6 2,4 3,5 5 3 7 4 ESE 1033,6 5 0,0
23.01.2020 09:00:00 3,3 2,2 3,1 5 3 11 6 SE 1033,8 5 0,0
23.01.2020 08:00:00 3,4 2,4 2,8 5 3 11 6 ESE 1033,7 5 0,0
23.01.2020 07:00:00 3,5 3,1 3,0 5 3 7 4 E 1034,0 1,3 0,0
23.01.2020 06:00:00 3,7 3,3 3,4 5 3 7 4 ENE 1034,2 2,1 0,0
23.01.2020 05:00:00 4,1 3,8 3,9 5 3 11 6 ESE 1034,6 2,3 0,0
23.01.2020 04:00:00 4,1 3,9 4,0 2 1 7 4 ENE 1035,2 2,0 0,0
23.01.2020 03:00:00 4,1 3,8 4,0 5 3 7 4 SE 1035,8 1,8 0,0
23.01.2020 02:00:00 4,0 3,9 4,0 8 4 11 6 SE 1036,0 1,5 0,0
23.01.2020 01:00:00 4,0 3,8 4,0 2 1 4 2 SW 1036,5 0,8 0,0
23.01.2020 00:00:00 4,0 3,8 3,9 2 1 4 2 SSE 1036,8 1,0 0,0
22.01.2020 23:00:00 3,9 3,7 3,8 4 2 4 2 - 1036,9 0,3 0,0
22.01.2020 22:00:00 3,7 3,6 3,7 4 2 11 6 - 1036,9 0,4 0,0
22.01.2020 21:00:00 3,6 3,4 3,6 4 2 7 4 S 1036,9 0,3 0,0
22.01.2020 20:00:00 3,6 3,3 3,7 2 1 7 4 SSE 1036,9 0,4 0,0
22.01.2020 19:00:00 3,5 3,3 3,6 2 1 7 4 S 1036,9 0,5 0,0
22.01.2020 18:00:00 3,5 3,4 3,6 2 1 11 6 W 1036,6 0,7 0,0
22.01.2020 17:00:00 3,5 3,3 3,6 5 3 11 6 WSW 1036,4 0,7 0,0
22.01.2020 16:00:00 3,4 3,2 3,6 4 2 11 6 - 1036,6 2,0 0,0
22.01.2020 15:00:00 3,3 3,0 3,7 5 3 11 6 WSW 1036,3 1,9 0,0
22.01.2020 14:00:00 2,8 2,5 3,3 5 3 11 6 SW 1036,6 1,6 0,0
22.01.2020 13:00:00 2,3 2,1 3,0 8 4 11 6 WSW 1037,0 1,4 0,0
22.01.2020 12:00:00 1,4 1,2 2,1 5 3 11 6 SW 1037,7 1,3 0,0
22.01.2020 11:00:00 0,2 -0,1 1,1 8 4 11 6 SW 1038,0 2,4 0,0
22.01.2020 10:00:00 -0,3 -0,5 -0,1 9 5 11 6 SSW 1037,4 2,1 0,0
22.01.2020 09:00:00 -0,6 -0,9 -0,5 4 2 7 4 - 1037,7 3,0 0,0

tt = temperature
td = dewpoint
tt 5cm = temperature 5cm
ff = wind speed
fx = gusts
dd = wind direction
ppp = reduced air pressure
vv = visibility
rr = precipitation

Next stations